Simultaneous Nadir Overpasses (SNOs) Predictions

Prediction of SNOs between NOAA-19 and METOP-C Satellite Orbit:

Table of predicted SNOs for the next 14.0 days since TLE Epoch: 1/23/2021
Index Date (NOAA-19) Time (NOAA-19) Lat,Lon (NOAA-19) SZA (NOAA-19 ) Date (METOP-C) Time (METOP-C) Lat,Lon (METOP-C) SZA (METOP-C ) Distance(km) Time Diff (sec)
1 01/23/2021 21:10:33 -80.36, 68.53 79.73 01/23/2021 21:11:41 -80.34, 68.63 79.71 2.28 68
2 01/23/2021 22:01:38 80.34,-123.94 100.27 01/23/2021 22:02:21 80.35,-123.98 100.29 1.16 43
3 01/23/2021 22:52:33 -80.35, 43.18 79.74 01/23/2021 22:53:03 -80.33, 43.16 79.75 1.75 30
4 01/23/2021 23:43:37 80.33,-149.29 100.26 01/23/2021 23:43:42 80.34,-149.44 100.26 2.90 5
5 01/24/2021 00:34:32 -80.34, 17.83 79.76 01/24/2021 00:34:24 -80.32, 17.69 79.78 3.20 8
6 01/24/2021 01:25:38 80.34,-174.98 100.24 01/24/2021 01:25:04 80.33,-174.91 100.22 2.05 34
7 01/24/2021 02:16:32 -80.33, -7.52 79.77 01/24/2021 02:15:45 -80.34, -7.46 79.77 1.44 47
8 01/24/2021 03:07:38 80.33, 159.67 100.22 01/24/2021 03:06:26 80.32, 159.62 100.19 2.08 72
9 02/03/2021 23:14:41 80.37,-142.24 97.28 02/03/2021 23:15:45 80.36,-142.21 97.29 1.17 64
10 02/04/2021 00:05:36 -80.36, 25.18 82.73 02/04/2021 00:06:27 -80.36, 25.13 82.72 0.95 51
11 02/04/2021 00:56:41 80.36,-167.60 97.26 02/04/2021 00:57:07 80.35,-167.68 97.25 1.90 26
12 02/04/2021 01:47:36 -80.35, -0.17 82.75 02/04/2021 01:47:49 -80.35, -0.34 82.76 3.11 13
13 02/04/2021 02:38:41 80.35, 167.05 97.24 02/04/2021 02:38:28 80.36, 167.17 97.26 2.74 13
14 02/04/2021 03:29:36 -80.34, -25.52 82.77 02/04/2021 03:29:10 -80.36, -25.49 82.76 2.58 26
15 02/04/2021 04:20:41 80.34, 141.69 97.22 02/04/2021 04:19:50 80.35, 141.70 97.22 1.10 51



Historial Predications of SNOs between NOAA-19 and METOP-C
